Weather History for South Lake Tahoe, CA

Change the Weather History Date:

Tuesday, June 3, 2014

  Actual Average Record
Temperature  
Mean Temperature 53 °F 52 °F  
Max Temperature 75 °F 69 °F 80 °F (2003)
Min Temperature 31 °F 35 °F 27 °F (1944)
Degree Days  
Heating Degree Days 12 13  
Month to date heating degree days 34 40  
Since 1 June heating degree days 34 40  
Since 1 July heating degree days 6529 7462  
Cooling Degree Days 0 0  
Month to date cooling degree days 0 0  
Year to date cooling degree days 0 0  
Since 1 June cooling degree days 0 0  
Growing Degree Days 2 (Base 50)    
Moisture  
Dew Point 29 °F    
Average Humidity 48    
Maximum Humidity 78    
Minimum Humidity 17    
Precipitation  
Precipitation 0.00 in - 0.29 in (1989)
Month to date precipitation 0.00  
Year to date precipitation 12.40  
Sea Level Pressure  
Sea Level Pressure 29.95 in    
Wind  
Wind Speed 4 mph (South)    
Max Wind Speed 15 mph    
Max Gust Speed 24 mph    
Visibility 10 miles    
Events      
T = Trace of Precipitation, MM = Missing Value Source: NWS Daily Summary

Daily Weather History Graph

Daily Weather History Graph

Search for Another Location

Airport:

Trip Planner

Search our weather history database for the weather conditions in past years. The results will help you decide how hot, cold, wet, or windy it might be!

Date:

Astronomy

Jun. 03, 2014 Rise Set
Actual Time 5:35 AM PDT 8:20 PM PDT
Civil Twilight 5:04 AM PDT 8:52 PM PDT
Nautical Twilight 4:24 AM PDT 9:32 PM PDT
Astronomical Twilight 3:40 AM PDT 10:16 PM PDT
Moon 11:01 AM PDT (6/3) No Moon Set
Length of Visible Light 15h 48m
Length of Day
14h 45m
Waxing Crescent, 31% of the Moon is Illuminated
Jun 3
Waxing Crescent
Jun 5
First Quarter
Jun 12
Full
Jun 19
Last Quarter
Jun 27
New

Hourly Weather History & Observations

Time (PDT) Temp. Windchill Dew Point Humidity Pressure Visibility Wind Dir Wind Speed Gust Speed Precip Events Conditions
12:53 AM 41.0 °F 39.0 °F 28.9 °F 62% 29.92 in 10.0 mi SSW 3.5 mph - N/A   Clear
1:53 AM 37.9 °F - 28.9 °F 70% 29.93 in 10.0 mi Calm Calm - N/A   Clear
2:53 AM 36.0 °F 33.3 °F 28.0 °F 73% 29.93 in 10.0 mi South 3.5 mph - N/A   Clear
3:53 AM 34.0 °F - 27.0 °F 75% 29.94 in 10.0 mi Calm Calm - N/A   Clear
4:53 AM 32.0 °F 28.7 °F 26.1 °F 79% 29.96 in 10.0 mi South 3.5 mph - N/A   Clear
5:53 AM 30.9 °F 27.5 °F 25.0 °F 79% 29.97 in 10.0 mi South 3.5 mph - N/A   Clear
6:53 AM 36.0 °F 33.3 °F 27.0 °F 70% 29.98 in 10.0 mi South 3.5 mph - N/A   Clear
7:53 AM 46.9 °F - 28.9 °F 50% 29.96 in 10.0 mi South 3.5 mph - N/A   Clear
8:53 AM 59.0 °F - 30.0 °F 33% 29.95 in 10.0 mi NE 4.6 mph - N/A   Clear
9:53 AM 63.0 °F - 28.9 °F 28% 29.95 in 10.0 mi NE 8.1 mph - N/A   Clear
10:53 AM 66.0 °F - 30.9 °F 27% 29.95 in 10.0 mi North - - N/A   Clear
11:53 AM 66.9 °F - 26.1 °F 21% 29.96 in 10.0 mi Calm Calm - N/A   Clear
12:53 PM 68.0 °F - 23.0 °F 18% 29.95 in 10.0 mi NNE 9.2 mph - N/A   Clear
1:53 PM 71.1 °F - 24.1 °F 17% 29.94 in 10.0 mi NNE 11.5 mph - N/A   Clear
2:53 PM 73.0 °F - 27.0 °F 18% 29.93 in 10.0 mi North - - N/A   Clear
3:53 PM 72.0 °F - 28.9 °F 20% 29.94 in 10.0 mi SSW 10.4 mph 19.6 mph N/A   Clear
4:53 PM 71.1 °F - 30.0 °F 22% 29.94 in 10.0 mi Variable 6.9 mph 17.3 mph N/A   Clear
5:53 PM 70.0 °F - 30.0 °F 23% 29.94 in 10.0 mi SSW 10.4 mph 17.3 mph N/A   Clear
6:53 PM 68.0 °F - 30.0 °F 24% 29.94 in 10.0 mi SSW 9.2 mph - N/A   Clear
7:53 PM 62.1 °F - 34.0 °F 35% 29.94 in 10.0 mi SSW 4.6 mph - N/A   Clear
8:53 PM 59.0 °F - 36.0 °F 42% 29.92 in 10.0 mi SW 4.6 mph - N/A   Clear
9:53 PM 52.0 °F - 36.0 °F 54% 29.95 in 10.0 mi NNE 3.5 mph - N/A   Clear